Leeuwarden, Netherlands

2:45 PM CET on February 13, 2016 (GMT +0100)
Leeuwarden Air Base

Weather History for EHLW - August, 2013

Change the Weather History Date:

Tuesday, August 27, 2013

  Actual Average Record
Temperature  
Mean Temperature 61 °F -  
Max Temperature 72 °F 64 °F 73 °F (1997)
Min Temperature 50 °F 50 °F 46 °F (1996)
Degree Days  
Heating Degree Days 4    
Growing Degree Days 11 (Base 50)    
Moisture  
Dew Point 53 °F    
Average Humidity 72    
Maximum Humidity 94    
Minimum Humidity 41    
Precipitation  
Precipitation 0.00 in - - ()
Sea Level Pressure  
Sea Level Pressure 30.05 in    
Wind  
Wind Speed 6 mph ()    
Max Wind Speed 15 mph    
Max Gust Speed -    
Visibility 7.0 miles    
Events      
Averages and records for this station are not official NWS values.
T = Trace of Precipitation, MM = Missing Value Source: Averaged Metar Reports

Daily Weather History Graph

Daily Weather History Graph

Search for Another Location

Airport or City:

Trip Planner

Search our weather history database for the weather conditions in past years. The results will help you decide how hot, cold, wet, or windy it might be!

Date:

Astronomy

Aug. 27, 2013 Rise Set
Actual Time 6:38 AM CEST 8:37 PM CEST
Civil Twilight 6:00 AM CEST 9:14 PM CEST
Nautical Twilight 5:14 AM CEST 10:01 PM CEST
Astronomical Twilight 4:20 AM CEST 10:54 PM CEST
Moon 11:16 PM CEST (8/27) 2:23 PM CEST (8/27)
Length of Visible Light 15h 13m
Length of Day
13h 59m
Waning Gibbous, 60% of the Moon is Illuminated
Aug 27
Waning Gibbous
Aug 28
Last Quarter
Sep 5
New
Sep 12
First Quarter
Sep 19
Full

Hourly Weather History & Observations

Time (CEST) Temp. Dew Point Humidity Pressure Visibility Wind Dir Wind Speed Gust Speed Precip Events Conditions
12:25 AM 57.2 °F 53.6 °F 88% 30.06 in 6.2 mi ENE 5.8 mph - N/A   Partly Cloudy
12:55 AM 55.4 °F 53.6 °F 94% 30.09 in 6.2 mi ENE 6.9 mph - N/A   Unknown
1:25 AM 55.4 °F 51.8 °F 88% 30.09 in 6.2 mi ENE 6.9 mph - N/A   Partly Cloudy
1:55 AM 55.4 °F 51.8 °F 88% 30.06 in 6.2 mi ENE 8.1 mph - N/A   Unknown
2:00 AM 55 °F 52 °F 86% 30.09 in 16 mi ENE 8.9 mph - -   Partly Cloudy
2:25 AM 55.4 °F 51.8 °F 88% 30.06 in 6.2 mi East 8.1 mph - N/A   Unknown
2:55 AM 53.6 °F 51.8 °F 94% 30.06 in 6.2 mi East 5.8 mph - N/A   Unknown
3:25 AM 55.4 °F 50.0 °F 82% 30.06 in 6.2 mi East 6.9 mph - N/A   Partly Cloudy
3:55 AM 55.4 °F 50.0 °F 82% 30.06 in 6.2 mi East 6.9 mph - N/A   Unknown
4:25 AM 53.6 °F 50.0 °F 88% 30.06 in 6.2 mi East 5.8 mph - N/A   Unknown
4:55 AM 51.8 °F 50.0 °F 94% 30.06 in 6.2 mi East 4.6 mph - N/A   Unknown
5:25 AM 51.8 °F 48.2 °F 88% 30.06 in 6.2 mi East 5.8 mph - N/A   Unknown
5:55 AM 51.8 °F 48.2 °F 88% 30.04 in 6.2 mi East 3.5 mph - N/A   Unknown
6:25 AM 51.8 °F 48.2 °F 88% 30.06 in 6.2 mi East 2.3 mph - N/A   Unknown
6:55 AM 50.0 °F 48.2 °F 94% 30.06 in 6.2 mi NE 2.3 mph - N/A   Unknown
7:25 AM 51.8 °F 48.2 °F 88% 30.06 in 6.2 mi ENE 2.3 mph - N/A   Unknown
7:55 AM 55.4 °F 50.0 °F 82% 30.06 in 6.2 mi ENE 1.2 mph - N/A   Unknown
8:00 AM 56 °F 50 °F 73% 30.06 in 9 mi ENE 2.2 mph - -   Partly Cloudy
8:25 AM 57.2 °F 50.0 °F 77% 30.06 in 6.2 mi ENE 2.3 mph - N/A   Partly Cloudy
8:55 AM 60.8 °F 51.8 °F 72% 30.06 in 6.2 mi ENE 3.5 mph - N/A   Unknown
9:25 AM 62.6 °F 51.8 °F 68% 30.06 in 6.2 mi ENE 3.5 mph - N/A   Unknown
9:55 AM 62.6 °F 53.6 °F 72% 30.06 in 6.2 mi ENE 4.6 mph - N/A   Unknown
10:25 AM 66.2 °F 53.6 °F 64% 30.06 in 6.2 mi East 4.6 mph - N/A   Partly Cloudy
10:55 AM 68.0 °F 53.6 °F 60% 30.06 in 6.2 mi East 5.8 mph - N/A   Partly Cloudy
11:25 AM 68.0 °F 53.6 °F 60% 30.06 in 6.2 mi East 5.8 mph - N/A   Partly Cloudy
11:55 AM 69.8 °F 51.8 °F 53% 30.04 in 6.2 mi East 9.2 mph - N/A   Partly Cloudy
12:25 PM 69.8 °F 51.8 °F 53% 30.04 in 6.2 mi East 9.2 mph - N/A   Scattered Clouds
12:55 PM 71.6 °F 50.0 °F 46% 30.04 in 6.2 mi East 10.4 mph - N/A   Partly Cloudy
1:25 PM 71.6 °F 46.4 °F 41% 30.04 in 6.2 mi East 9.2 mph - N/A   Partly Cloudy
1:55 PM 71.6 °F 48.2 °F 43% 30.04 in 6.2 mi East 8.1 mph - N/A   Partly Cloudy
2:25 PM 71.6 °F 48.2 °F 43% 30.04 in 6.2 mi ENE 8.1 mph - N/A   Partly Cloudy
2:55 PM 71.6 °F 48.2 °F 43% 30.04 in 6.2 mi East 8.1 mph - N/A   Scattered Clouds
3:25 PM 71.6 °F 48.2 °F 43% 30.04 in 6.2 mi ENE 8.1 mph - N/A   Unknown
3:55 PM 69.8 °F 51.8 °F 53% 30.01 in 6.2 mi NE 12.7 mph - N/A   Mostly Cloudy
4:00 PM 70 °F 53 °F 45% 30.03 in 25 mi NE 11.2 mph - -   Mostly Cloudy
4:25 PM 71.6 °F 53.6 °F 53% 30.01 in 6.2 mi ENE 11.5 mph - N/A   Scattered Clouds
4:55 PM 69.8 °F 55.4 °F 60% 30.01 in 6.2 mi NE 13.8 mph - N/A   Unknown
5:00 PM 70 °F 55 °F 49% 30.03 in 22 mi NE 13.4 mph - -   Scattered Clouds
5:25 PM 69.8 °F 55.4 °F 60% 30.01 in 6.2 mi NE 13.8 mph - N/A   Partly Cloudy
5:55 PM 69.8 °F 55.4 °F 60% 30.01 in 6.2 mi NE 15.0 mph - N/A   Partly Cloudy
6:00 PM 69 °F 54 °F 50% 30.03 in 22 mi NE 13.4 mph - -   Scattered Clouds
6:25 PM 68.0 °F 55.4 °F 64% 30.01 in 6.2 mi NE 13.8 mph - N/A   Scattered Clouds
6:55 PM 68.0 °F 55.4 °F 64% 30.01 in 6.2 mi NE 11.5 mph - N/A   Unknown
7:00 PM 68 °F 56 °F 57% 30.04 in 22 mi NE 11.2 mph - -   Scattered Clouds
7:25 PM 66.2 °F 57.2 °F 73% 30.04 in 6.2 mi ENE 10.4 mph - N/A   Partly Cloudy
7:55 PM 66.2 °F 57.2 °F 73% 30.04 in 6.2 mi NE 10.4 mph - N/A   Unknown
8:00 PM 66 °F 58 °F 69% 30.04 in 19 mi NE 8.9 mph - -   Partly Cloudy
8:25 PM 64.4 °F 59.0 °F 83% 30.04 in 6.2 mi ENE 8.1 mph - N/A   Unknown
8:55 PM 64.4 °F 59.0 °F 83% 30.04 in 6.2 mi ENE 9.2 mph - N/A   Mostly Cloudy
9:00 PM 63 °F 58 °F 78% 30.05 in 14 mi ENE 8.9 mph - -   Mostly Cloudy
9:25 PM 62.6 °F 57.2 °F 82% 30.04 in 6.2 mi ENE 5.8 mph - N/A   Partly Cloudy
9:55 PM 62.6 °F 57.2 °F 82% 30.04 in 6.2 mi NE 5.8 mph - N/A   Overcast
10:00 PM 62 °F 58 °F 82% 30.07 in 11 mi NE 3.5 mph - -   Overcast
10:25 PM 62.6 °F 59.0 °F 88% 30.06 in 6.2 mi NE 5.8 mph - N/A   Overcast
10:55 PM 62.6 °F 59.0 °F 88% 30.06 in 6.2 mi NE 4.6 mph - N/A   Overcast
11:00 PM 63 °F 59 °F 82% 30.07 in 9 mi NE 4.5 mph - -   Overcast
11:25 PM 62.6 °F 59.0 °F 88% 30.06 in 6.2 mi NE 4.6 mph - N/A   Overcast
11:55 PM 62.6 °F 59.0 °F 88% 30.06 in 6.2 mi NE 5.8 mph - N/A   Overcast